Ana Sayfa
METAR-TAF:

METAR-TAF

Havaalanları :

Corsicana Municipal Airport (C. David Campbell Field)

Corsicana, Teksas, Amerika Birleşik Devletleri

Enlem: 32-01-52N, Boylam: 096-23-56W, yükseklik: 136 m

Güncel hava durumu gözlemi

Rapor saat 09:53 UTC de 20 dakika önce yapıldı.
Rüzgar kuzey/kuzeybatıdan 5 kt
Sıcaklık 7°C
Nem 81%
Basınç 1013 hPa
Görüş mesafesi: 16.1 km
Açık gökyüzü

METAR: KCRS 250953Z AUTO 33005KT 10SM CLR 07/04 A2990 RMK AO2 SLP122 T00670044

Saat: 04:13 (10:13 UTC)


TAF: eksik

4.000'den fazla havaalanı için hava durumu gözlemleri ve tahminleri (METAR ve TAF raporları).

Kullanılabilir istasyonlar harita üzerinde sarı ve kırmızı noktalarla gösterilir.

İstasyonun adını görmek için fareyi noktanın üzerinde gezdirin.

Sonrasında hava gözlem ve tahminlerini görmek için tıklayın.

Haritayı değiştirmek için: yaklaştırmak için siyah artı işaretli yeşil düğmeye ve uzaklaştırmak için de eksi işaretli düğmeye hızla tıklayın; bitişik haritalar için yeşil okları kullanın.


METAR-TAF: